Location: B?dimalle
(17.1788°N, 80.5377°E)
Time: 09:55:58
(UTC+00:00)

Tiros 1 despin weight - Pass Details

Date: 24 February 2026
Orbit: 556 x 593 km, 48.2° (Epoch: 10 March)

Event Time Altitude Azimuth Distance (km) Brightness Sun altitude
Rises 14:19:42 0° 327° (NNW) 2,723 ? -23.8°
Reaches altitude 10° 14:22:02 10° 334° (NNW) 1,831 ? -24.4°
Enters shadow 14:23:57 24° 348° (NNW) 1,164 ? -24.8°
Maximum altitude 14:26:01 43° 46° (NE) 783 - -25.3°
Drops below altitude 10° 14:30:02 10° 119° (ESE) 1,843 - -26.3°
Sets 14:32:22 0° 125° (SE) 2,744 - -26.8°
